Weather History for Grand Prairie, TX

Change the Weather History Date:

Tuesday, March 25, 2014

  Actual Average (KDFW) Record (KDFW)
Temperature  
Mean Temperature 52 °F 60 °F  
Max Temperature 62 °F 71 °F 97 °F (1899)
Min Temperature 41 °F 49 °F 26 °F (1955)
Degree Days  
Heating Degree Days 14 6  
Month to date heating degree days 227  
Since 1 July heating degree days 2159  
Cooling Degree Days 0 1  
Month to date cooling degree days 23  
Year to date cooling degree days 30  
Growing Degree Days 2 (Base 50)    
Moisture  
Dew Point 28 °F    
Average Humidity 44    
Maximum Humidity 70    
Minimum Humidity 20    
Precipitation  
Precipitation 0.00 in 0.12 in 3.40 in (1904)
Month to date precipitation 2.86  
Year to date precipitation 7.65  
Snow  
Snow 0.00 in 0.00 in T in (1996)
Month to date snowfall 0.2  
Since 1 July snowfall 1.2  
Snow Depth -    
Sea Level Pressure  
Sea Level Pressure 30.27 in    
Wind  
Wind Speed 6 mph (NE)    
Max Wind Speed 14 mph    
Max Gust Speed 22 mph    
Visibility 10 miles    
Events      
T = Trace of Precipitation, MM = Missing Value Source: NWS Daily Summary

Daily Weather History Graph

Daily Weather History Graph

Search for Another Location

Airport:

Trip Planner

Search our weather history database for the weather conditions in past years. The results will help you decide how hot, cold, wet, or windy it might be!

Date:

Astronomy

Mar. 25, 2014 Rise Set
Actual Time 7:25 AM CDT 7:43 PM CDT
Civil Twilight 7:00 AM CDT 8:08 PM CDT
Nautical Twilight 6:31 AM CDT 8:36 PM CDT
Astronomical Twilight 6:02 AM CDT 9:06 PM CDT
Moon 3:31 AM CDT (3/25) 2:30 PM CDT (3/25)
Length of Visible Light 13h 07m
Length of Day
12h 18m
Waning Crescent, 32% of the Moon is Illuminated
Mar 25
Waning Crescent
Mar 30
New
Apr 7
First Quarter
Apr 15
Full
Apr 22
Last Quarter

Hourly Weather History & Observations

Time (CDT) Temp. Windchill Dew Point Humidity Pressure Visibility Wind Dir Wind Speed Gust Speed Precip Events Conditions
12:15 AM 53.6 °F - 35.6 °F 51% 30.18 in 10.0 mi Calm Calm - N/A   Clear
12:35 AM 51.8 °F - 35.6 °F 54% 30.19 in 10.0 mi Calm Calm - N/A   Clear
12:55 AM 53.6 °F - 35.6 °F 51% 30.19 in 10.0 mi Calm Calm - N/A   Clear
1:15 AM 51.8 °F - 35.6 °F 54% 30.19 in 10.0 mi Calm Calm - N/A   Clear
1:35 AM 51.8 °F - 35.6 °F 54% 30.20 in 10.0 mi Calm Calm - N/A   Clear
1:55 AM 51.8 °F - 35.6 °F 54% 30.20 in 10.0 mi NW 5.8 mph - N/A   Clear
2:15 AM 51.8 °F - 35.6 °F 54% 30.21 in 10.0 mi Calm Calm - N/A   Clear
2:35 AM 51.8 °F - 35.6 °F 54% 30.22 in 10.0 mi North 10.4 mph - N/A   Clear
2:55 AM 50.0 °F - 37.4 °F 62% 30.23 in 10.0 mi North 13.8 mph - N/A   Clear
3:15 AM 46.4 °F 40.4 °F 33.8 °F 62% 30.23 in 10.0 mi NNE 13.8 mph 21.9 mph N/A   Clear
3:35 AM 46.4 °F 41.9 °F 32.0 °F 57% 30.24 in 10.0 mi NNE 9.2 mph 17.3 mph N/A   Clear
3:55 AM 46.4 °F 41.1 °F 32.0 °F 57% 30.24 in 10.0 mi NNE 11.5 mph - N/A   Clear
4:15 AM 44.6 °F 38.4 °F 30.2 °F 57% 30.24 in 10.0 mi North 12.7 mph - N/A   Clear
4:35 AM 44.6 °F 38.4 °F 30.2 °F 57% 30.25 in 10.0 mi North 12.7 mph - N/A   Clear
4:55 AM 44.6 °F 38.8 °F 30.2 °F 57% 30.26 in 10.0 mi North 11.5 mph - N/A   Clear
5:15 AM 42.8 °F 37.0 °F 30.2 °F 61% 30.28 in 10.0 mi North 10.4 mph - N/A   Clear
5:35 AM 42.8 °F 36.2 °F 32.0 °F 66% 30.28 in 10.0 mi North 12.7 mph - N/A   Clear
5:55 AM 42.8 °F 36.2 °F 32.0 °F 66% 30.28 in 10.0 mi North 12.7 mph - N/A   Clear
6:15 AM 41.0 °F 34.3 °F 32.0 °F 70% 30.29 in 10.0 mi North 11.5 mph - N/A   Clear
6:35 AM 41.0 °F 34.3 °F 32.0 °F 70% 30.31 in 10.0 mi North 11.5 mph - N/A   Clear
7:50 AM 42.8 °F 36.6 °F 30.2 °F 61% 30.33 in 10.0 mi North 11.5 mph - N/A   Clear
8:50 AM 44.6 °F 39.7 °F 26.6 °F 49% 30.39 in 10.0 mi NNE 9.2 mph - N/A   Clear
9:50 AM 48.2 °F - 17.6 °F 30% 30.41 in 10.0 mi NNE 11.5 mph 20.7 mph N/A   Clear
10:50 AM 51.8 °F - 17.6 °F 26% 30.43 in 10.0 mi NNE 9.2 mph - N/A   Clear
11:50 AM 55.4 °F - 19.4 °F 25% 30.42 in 10.0 mi NNE 11.5 mph 20.7 mph N/A   Clear
12:50 PM 57.2 °F - 19.4 °F 23% 30.41 in 10.0 mi NE 12.7 mph 17.3 mph N/A   Clear
1:50 PM 59.0 °F - 21.2 °F 23% 30.38 in 10.0 mi NE 3.5 mph 17.3 mph N/A   Clear
2:50 PM 59.0 °F - 21.2 °F 23% 30.34 in 10.0 mi ENE 11.5 mph 20.7 mph N/A   Clear
3:50 PM 62.6 °F - 23.0 °F 22% 30.31 in 10.0 mi ENE 11.5 mph 16.1 mph N/A   Clear
4:50 PM 62.6 °F - 21.2 °F 20% 30.29 in 10.0 mi NE 6.9 mph - N/A   Clear
5:50 PM 62.6 °F - 21.2 °F 20% 30.27 in 10.0 mi ENE 4.6 mph - N/A   Clear
6:50 PM 60.8 °F - 23.0 °F 23% 30.27 in 10.0 mi East 9.2 mph - N/A   Clear
7:50 PM 57.2 °F - 24.8 °F 29% 30.26 in 10.0 mi East 6.9 mph - N/A   Clear
8:15 PM 55.4 °F - 24.8 °F 31% 30.26 in 10.0 mi ESE 3.5 mph - N/A   Clear
8:35 PM 55.4 °F - 24.8 °F 31% 30.26 in 10.0 mi ESE 4.6 mph - N/A   Clear
8:55 PM 53.6 °F - 26.6 °F 35% 30.26 in 10.0 mi ESE 4.6 mph - N/A   Clear
9:15 PM 53.6 °F - 26.6 °F 35% 30.26 in 10.0 mi ESE 5.8 mph - N/A   Clear
9:35 PM 53.6 °F - 26.6 °F 35% 30.26 in 10.0 mi ESE 5.8 mph - N/A   Clear
9:55 PM 51.8 °F - 26.6 °F 38% 30.26 in 10.0 mi ESE 5.8 mph - N/A   Clear
10:15 PM 51.8 °F - 26.6 °F 38% 30.27 in 10.0 mi SE 4.6 mph - N/A   Clear
10:35 PM 51.8 °F - 26.6 °F 38% 30.27 in 10.0 mi ESE 4.6 mph - N/A   Clear
10:55 PM 50.0 °F - 26.6 °F 40% 30.27 in 10.0 mi ESE 3.5 mph - N/A   Clear
11:15 PM 50.0 °F - 26.6 °F 40% 30.26 in 10.0 mi ESE 4.6 mph - N/A   Clear
11:35 PM 50.0 °F - 28.4 °F 43% 30.26 in 10.0 mi East 5.8 mph - N/A   Clear
11:55 PM 50.0 °F - 28.4 °F 43% 30.25 in 10.0 mi ESE 5.8 mph - N/A   Clear